ACA115 CYVR-CYYZ

Flight info

Callsign ACA115
Flight time 3h 52m
Altitude 39000
Route ALNOD DCT IKNIX DCT BEVEL DCT 4930N10000W DCT AGLIN DCT OTNIK BOXUM7
Aircraft B77W/H-SDE1E2E3FGHIJ2J3J4J5M1RWXY/LB1D1

Departure

Time 2026-05-07 00:21
Airport Vancouver International Airport (CYVR)

Arrival

Time 2026-05-07 04:14
Airport Toronto Pearson International Airport (CYYZ)
Time Latitude Longitude Altitude Speed Heading
2026-05-06 23:37 49.19620 -123.18391 25 ft 0 kts 185°
2026-05-07 00:06 49.19621 -123.18391 25 ft 0 kts 185°
2026-05-07 00:07 49.19632 -123.18390 25 ft 2 kts 187°
2026-05-07 00:08 49.19646 -123.18385 25 ft 2 kts 204°
2026-05-07 00:08 49.19659 -123.18374 25 ft 2 kts 218°
2026-05-07 00:08 49.19670 -123.18358 25 ft 2 kts 232°
2026-05-07 00:08 49.19678 -123.18339 25 ft 2 kts 246°
2026-05-07 00:09 49.19683 -123.18317 25 ft 2 kts 259°
2026-05-07 00:09 49.19684 -123.18295 25 ft 2 kts 274°
2026-05-07 00:09 49.19684 -123.18284 25 ft 0 kts 280°
2026-05-07 00:09 49.19687 -123.18318 25 ft 6 kts 279°
2026-05-07 00:10 49.19695 -123.18391 25 ft 5 kts 280°
2026-05-07 00:10 49.19698 -123.18418 25 ft 0 kts 280°
2026-05-07 00:10 49.19698 -123.18419 25 ft 0 kts 280°
2026-05-07 00:12 49.19699 -123.18420 25 ft 0 kts 280°
2026-05-07 00:12 49.19701 -123.18441 25 ft 3 kts 279°
2026-05-07 00:13 49.19705 -123.18482 25 ft 4 kts 279°
2026-05-07 00:13 49.19711 -123.18532 25 ft 5 kts 280°
2026-05-07 00:13 49.19718 -123.18592 25 ft 6 kts 280°
2026-05-07 00:13 49.19711 -123.18660 25 ft 6 kts 233°
2026-05-07 00:14 49.19669 -123.18684 25 ft 6 kts 188°
2026-05-07 00:14 49.19616 -123.18697 25 ft 8 kts 189°
2026-05-07 00:14 49.19547 -123.18715 25 ft 10 kts 189°
2026-05-07 00:14 49.19472 -123.18735 25 ft 10 kts 190°
2026-05-07 00:15 49.19423 -123.18752 25 ft 6 kts 199°
2026-05-07 00:15 49.19389 -123.18795 25 ft 6 kts 238°
2026-05-07 00:15 49.19376 -123.18870 25 ft 8 kts 261°
2026-05-07 00:15 49.19364 -123.18971 24 ft 9 kts 259°
2026-05-07 00:16 49.19352 -123.19075 24 ft 9 kts 259°
2026-05-07 00:16 49.19338 -123.19184 24 ft 11 kts 259°
2026-05-07 00:16 49.19321 -123.19317 24 ft 13 kts 259°
2026-05-07 00:16 49.19304 -123.19462 25 ft 13 kts 259°
2026-05-07 00:17 49.19285 -123.19604 25 ft 13 kts 259°
2026-05-07 00:17 49.19267 -123.19747 26 ft 13 kts 260°
2026-05-07 00:17 49.19250 -123.19892 27 ft 13 kts 259°
2026-05-07 00:17 49.19232 -123.20038 28 ft 14 kts 259°
2026-05-07 00:18 49.19213 -123.20186 29 ft 14 kts 259°
2026-05-07 00:18 49.19195 -123.20332 29 ft 14 kts 259°
2026-05-07 00:18 49.19179 -123.20483 30 ft 14 kts 267°
2026-05-07 00:18 49.19190 -123.20615 30 ft 11 kts 281°
2026-05-07 00:19 49.19203 -123.20723 29 ft 9 kts 277°
2026-05-07 00:19 49.19188 -123.20810 29 ft 8 kts 225°
2026-05-07 00:19 49.19134 -123.20836 29 ft 8 kts 183°
2026-05-07 00:19 49.19078 -123.20844 29 ft 7 kts 186°
2026-05-07 00:20 49.19028 -123.20833 29 ft 6 kts 144°
2026-05-07 00:20 49.19008 -123.20776 29 ft 3 kts 100°
2026-05-07 00:20 49.19008 -123.20767 29 ft 0 kts 99°
2026-05-07 00:20 49.19006 -123.20756 29 ft 7 kts 99°
2026-05-07 00:21 49.18965 -123.20395 30 ft 73 kts 99°
2026-05-07 00:21 49.18830 -123.19206 26 ft 149 kts 100°
2026-05-07 00:21 49.18634 -123.17395 323 ft 187 kts 98°
2026-05-07 00:21 49.18492 -123.15467 1327 ft 185 kts 98°
2026-05-07 00:22 49.18327 -123.13535 1952 ft 190 kts 99°
2026-05-07 00:22 49.18117 -123.11475 2323 ft 211 kts 98°
2026-05-07 00:22 49.17891 -123.09163 2843 ft 226 kts 98°
2026-05-07 00:22 49.17657 -123.06722 3411 ft 240 kts 98°
2026-05-07 00:23 49.17405 -123.04136 3975 ft 254 kts 98°
2026-05-07 00:23 49.17128 -123.01411 4521 ft 268 kts 98°
2026-05-07 00:23 49.16846 -122.98527 5170 ft 277 kts 98°
2026-05-07 00:23 49.16587 -122.95670 5987 ft 279 kts 97°
2026-05-07 00:24 49.16328 -122.92650 6620 ft 288 kts 97°
2026-05-07 00:24 49.16079 -122.89629 7440 ft 290 kts 97°
2026-05-07 00:24 49.15826 -122.86592 8107 ft 296 kts 97°
2026-05-07 00:24 49.15566 -122.83433 8764 ft 302 kts 97°
2026-05-07 00:25 49.15301 -122.80215 9504 ft 305 kts 97°
2026-05-07 00:25 49.15033 -122.77029 10233 ft 307 kts 97°
2026-05-07 00:25 49.14749 -122.73739 10669 ft 322 kts 96°
2026-05-07 00:25 49.14455 -122.70254 11109 ft 338 kts 96°
2026-05-07 00:26 49.14148 -122.66599 11474 ft 355 kts 96°
2026-05-07 00:26 49.13824 -122.62820 11894 ft 371 kts 96°
2026-05-07 00:26 49.13476 -122.58833 12380 ft 387 kts 96°
2026-05-07 00:26 49.13116 -122.54634 12878 ft 402 kts 96°
2026-05-07 00:27 49.12746 -122.50328 13392 ft 417 kts 96°
2026-05-07 00:27 49.12363 -122.45898 13933 ft 431 kts 96°
2026-05-07 00:27 49.11968 -122.41341 14805 ft 437 kts 96°
2026-05-07 00:27 49.11565 -122.36729 15809 ft 440 kts 96°
2026-05-07 00:28 49.11151 -122.32011 16660 ft 448 kts 96°
2026-05-07 00:28 49.10725 -122.27161 17449 ft 456 kts 96°
2026-05-07 00:28 49.10296 -122.22314 18269 ft 462 kts 96°
2026-05-07 00:28 49.09865 -122.17473 19076 ft 468 kts 96°
2026-05-07 00:29 49.09420 -122.12492 19820 ft 475 kts 96°
2026-05-07 00:29 49.08969 -122.07479 20659 ft 479 kts 96°
2026-05-07 00:30 49.07581 -121.92172 22909 ft 494 kts 96°
2026-05-07 00:30 49.07103 -121.86952 23617 ft 499 kts 95°
2026-05-07 00:30 49.06622 -121.81677 24296 ft 503 kts 95°
2026-05-07 00:30 49.06133 -121.76405 24925 ft 509 kts 95°
2026-05-07 00:31 49.05627 -121.70994 25540 ft 515 kts 95°
2026-05-07 00:31 49.05333 -121.65601 26079 ft 518 kts 86°
2026-05-07 00:31 49.05548 -121.60080 26600 ft 521 kts 78°
2026-05-07 00:31 49.06046 -121.54594 27264 ft 524 kts 77°
2026-05-07 00:32 49.06567 -121.49103 28014 ft 527 kts 76°
2026-05-07 00:32 49.07087 -121.43581 28725 ft 531 kts 76°
2026-05-07 00:32 49.07610 -121.37942 29340 ft 536 kts 76°
2026-05-07 00:32 49.08132 -121.32253 30088 ft 538 kts 77°
2026-05-07 00:33 49.08651 -121.26527 30945 ft 538 kts 77°
2026-05-07 00:33 49.09159 -121.20860 31873 ft 535 kts 76°
2026-05-07 00:33 49.09654 -121.15308 32716 ft 532 kts 76°
2026-05-07 00:33 49.10151 -121.09703 33423 ft 532 kts 76°
2026-05-07 00:34 49.10642 -121.04119 34074 ft 532 kts 76°
2026-05-07 00:34 49.11131 -120.98536 34767 ft 532 kts 76°
2026-05-07 00:34 49.11611 -120.93008 35494 ft 531 kts 76°
2026-05-07 00:34 49.12096 -120.87380 36275 ft 529 kts 76°
2026-05-07 00:35 49.12577 -120.81771 36935 ft 528 kts 76°
2026-05-07 00:35 49.13045 -120.76279 37508 ft 527 kts 76°
2026-05-07 00:35 49.13515 -120.70740 37985 ft 527 kts 76°
2026-05-07 00:35 49.13990 -120.65105 38397 ft 527 kts 76°
2026-05-07 00:36 49.14451 -120.59611 38754 ft 527 kts 76°
2026-05-07 00:36 49.14911 -120.54081 39059 ft 528 kts 76°
2026-05-07 00:36 49.15829 -120.42960 39038 ft 527 kts 76°
2026-05-07 00:37 49.16732 -120.31873 39016 ft 528 kts 76°
2026-05-07 00:37 49.17636 -120.20642 39013 ft 528 kts 77°
2026-05-07 00:38 49.18525 -120.09459 39022 ft 527 kts 77°
2026-05-07 00:38 49.19392 -119.98408 39008 ft 527 kts 77°
2026-05-07 00:39 49.20252 -119.87302 38989 ft 524 kts 76°
2026-05-07 00:39 49.21104 -119.76203 38980 ft 529 kts 76°
2026-05-07 00:40 49.21942 -119.65089 38993 ft 525 kts 76°
2026-05-07 00:40 49.22765 -119.54061 38937 ft 528 kts 76°
2026-05-07 00:41 49.23588 -119.42888 38929 ft 530 kts 77°
2026-05-07 00:41 49.24401 -119.31676 38941 ft 529 kts 77°
2026-05-07 00:42 49.25208 -119.20367 38971 ft 533 kts 78°
2026-05-07 00:42 49.25954 -119.09105 38930 ft 531 kts 78°
2026-05-07 00:43 49.26691 -118.97824 38893 ft 531 kts 78°
2026-05-07 00:43 49.27413 -118.86605 38825 ft 532 kts 78°
2026-05-07 00:44 49.27770 -118.81002 39022 ft 534 kts 78°
2026-05-07 00:44 49.28129 -118.75327 38911 ft 533 kts 78°
2026-05-07 00:44 49.28835 -118.64021 38916 ft 534 kts 78°
2026-05-07 00:45 49.29527 -118.52760 38914 ft 529 kts 78°
2026-05-07 00:45 49.30209 -118.41516 38914 ft 532 kts 78°
2026-05-07 00:46 49.30884 -118.30171 38911 ft 532 kts 79°
2026-05-07 00:46 49.31548 -118.18832 38883 ft 530 kts 79°
2026-05-07 00:47 49.32198 -118.07564 38921 ft 533 kts 78°
2026-05-07 00:47 49.32835 -117.96287 38928 ft 531 kts 79°
2026-05-07 00:48 49.33462 -117.85025 38957 ft 532 kts 79°
2026-05-07 00:48 49.34077 -117.73749 38928 ft 530 kts 79°
2026-05-07 00:49 49.34681 -117.62482 38902 ft 529 kts 79°
2026-05-07 00:49 49.35270 -117.51289 38891 ft 526 kts 79°
2026-05-07 00:50 49.35851 -117.40067 38908 ft 530 kts 79°
2026-05-07 00:50 49.36424 -117.28758 38903 ft 525 kts 80°
2026-05-07 00:51 49.36982 -117.17548 38918 ft 525 kts 80°
2026-05-07 00:51 49.37524 -117.06419 38977 ft 525 kts 80°
2026-05-07 00:52 49.38057 -116.95264 38969 ft 524 kts 80°
2026-05-07 00:52 49.38581 -116.84088 38956 ft 526 kts 81°
2026-05-07 00:53 49.39092 -116.72910 38948 ft 526 kts 80°
2026-05-07 00:53 49.39593 -116.61748 38925 ft 525 kts 81°
2026-05-07 00:54 49.40081 -116.50615 38983 ft 525 kts 81°
2026-05-07 00:54 49.40564 -116.39364 38951 ft 527 kts 81°
2026-05-07 00:55 49.41038 -116.28069 38924 ft 526 kts 82°
2026-05-07 00:55 49.41501 -116.16779 39005 ft 530 kts 82°
2026-05-07 00:56 49.41948 -116.05553 38973 ft 529 kts 82°
2026-05-07 00:56 49.42385 -115.94344 38969 ft 527 kts 82°
2026-05-07 00:57 49.42813 -115.83093 38943 ft 529 kts 82°
2026-05-07 00:57 49.43230 -115.71804 38912 ft 525 kts 82°
2026-05-07 00:58 49.43637 -115.60551 38916 ft 528 kts 82°
2026-05-07 00:58 49.44027 -115.49422 38896 ft 526 kts 82°
2026-05-07 00:59 49.44597 -115.32621 38917 ft 525 kts 83°
2026-05-07 01:00 49.44967 -115.21259 38944 ft 523 kts 83°
2026-05-07 01:00 49.45320 -115.10133 38955 ft 523 kts 83°
2026-05-07 01:01 49.45662 -114.98989 38948 ft 521 kts 83°
2026-05-07 01:01 49.45993 -114.87865 38960 ft 524 kts 83°
2026-05-07 01:02 49.46315 -114.76678 38977 ft 522 kts 83°
2026-05-07 01:02 49.46623 -114.65604 38960 ft 522 kts 83°
2026-05-07 01:03 49.46921 -114.54507 38959 ft 520 kts 83°
2026-05-07 01:03 49.47209 -114.43400 38951 ft 521 kts 83°
2026-05-07 01:04 49.47487 -114.32243 38930 ft 520 kts 84°
2026-05-07 01:04 49.47756 -114.21044 38912 ft 521 kts 84°
2026-05-07 01:05 49.48010 -114.09990 38902 ft 518 kts 84°
2026-05-07 01:05 49.48254 -113.98923 38891 ft 519 kts 84°
2026-05-07 01:06 49.48488 -113.87889 38891 ft 521 kts 84°
2026-05-07 01:06 49.48711 -113.76776 38892 ft 517 kts 84°
2026-05-07 01:07 49.48922 -113.65777 38887 ft 519 kts 84°
2026-05-07 01:07 49.49124 -113.54713 38877 ft 516 kts 84°
2026-05-07 01:08 49.49313 -113.43762 38899 ft 516 kts 84°
2026-05-07 01:08 49.49495 -113.32648 38869 ft 517 kts 84°
2026-05-07 01:09 49.49665 -113.21571 38847 ft 514 kts 85°
2026-05-07 01:09 49.49823 -113.10641 38846 ft 516 kts 84°
2026-05-07 01:10 49.49972 -112.99584 38819 ft 514 kts 85°
2026-05-07 01:10 49.50109 -112.88631 38813 ft 514 kts 84°
2026-05-07 01:11 49.50236 -112.77667 38812 ft 514 kts 85°
2026-05-07 01:11 49.50354 -112.66666 38825 ft 513 kts 85°
2026-05-07 01:12 49.50459 -112.55733 38826 ft 513 kts 85°
2026-05-07 01:12 49.50555 -112.44759 38828 ft 511 kts 84°
2026-05-07 01:13 49.50641 -112.33836 38832 ft 513 kts 85°
2026-05-07 01:13 49.50716 -112.22839 38819 ft 510 kts 85°
2026-05-07 01:14 49.50780 -112.11994 38828 ft 511 kts 85°
2026-05-07 01:14 49.50835 -112.01086 38826 ft 510 kts 85°
2026-05-07 01:15 49.50879 -111.90205 38830 ft 509 kts 86°
2026-05-07 01:15 49.50912 -111.79326 38831 ft 509 kts 85°
2026-05-07 01:16 49.50936 -111.68468 38835 ft 510 kts 85°
2026-05-07 01:16 49.50950 -111.57571 38842 ft 508 kts 85°
2026-05-07 01:17 49.50952 -111.46746 38833 ft 509 kts 85°
2026-05-07 01:17 49.50946 -111.35873 38836 ft 510 kts 85°
2026-05-07 01:18 49.50928 -111.24901 38827 ft 509 kts 86°
2026-05-07 01:18 49.50901 -111.14057 38828 ft 508 kts 86°
2026-05-07 01:19 49.50864 -111.03253 38828 ft 507 kts 86°
2026-05-07 01:19 49.50816 -110.92377 38823 ft 508 kts 86°
2026-05-07 01:20 49.50759 -110.81577 38835 ft 509 kts 86°
2026-05-07 01:20 49.50691 -110.70701 38840 ft 509 kts 86°
2026-05-07 01:21 49.50612 -110.59861 38848 ft 508 kts 86°
2026-05-07 01:21 49.50524 -110.48976 38853 ft 508 kts 86°
2026-05-07 01:22 49.50426 -110.38138 38861 ft 508 kts 86°
2026-05-07 01:22 49.50315 -110.27165 38854 ft 506 kts 86°
2026-05-07 01:23 49.50198 -110.16380 38849 ft 509 kts 86°
2026-05-07 01:23 49.50068 -110.05496 38857 ft 506 kts 86°
2026-05-07 01:24 49.50066 -109.94682 38863 ft 504 kts 81°
2026-05-07 01:24 49.50579 -109.83970 38859 ft 503 kts 80°
2026-05-07 01:25 49.51070 -109.73220 38867 ft 504 kts 80°
2026-05-07 01:25 49.51527 -109.62543 38861 ft 504 kts 81°
2026-05-07 01:26 49.51963 -109.51833 38855 ft 502 kts 80°
2026-05-07 01:26 49.52387 -109.41068 38855 ft 505 kts 81°
2026-05-07 01:27 49.52794 -109.30323 38847 ft 502 kts 81°
2026-05-07 01:27 49.53191 -109.19577 38850 ft 503 kts 81°
2026-05-07 01:28 49.53577 -109.08799 38853 ft 504 kts 81°
2026-05-07 01:28 49.53950 -108.98099 38853 ft 502 kts 81°
2026-05-07 01:29 49.54314 -108.87367 38855 ft 503 kts 81°
2026-05-07 01:29 49.54670 -108.76596 38858 ft 502 kts 81°
2026-05-07 01:30 49.55012 -108.65910 38860 ft 503 kts 81°
2026-05-07 01:30 49.55346 -108.55178 38858 ft 504 kts 81°
2026-05-07 01:31 49.55671 -108.44423 38872 ft 504 kts 80°
2026-05-07 01:31 49.55984 -108.33688 38867 ft 501 kts 81°
2026-05-07 01:32 49.56292 -108.22871 38864 ft 505 kts 81°
2026-05-07 01:32 49.56585 -108.12119 38860 ft 502 kts 81°
2026-05-07 01:33 49.56867 -108.01453 38873 ft 501 kts 81°
2026-05-07 01:33 49.57143 -107.90685 38875 ft 503 kts 81°
2026-05-07 01:34 49.57405 -107.80009 38867 ft 502 kts 81°
2026-05-07 01:34 49.57659 -107.69278 38882 ft 502 kts 81°
2026-05-07 01:35 49.57903 -107.58579 38872 ft 504 kts 81°
2026-05-07 01:35 49.58138 -107.47797 38870 ft 501 kts 80°
2026-05-07 01:36 49.58361 -107.37102 38884 ft 502 kts 80°
2026-05-07 01:36 49.58576 -107.26369 38874 ft 502 kts 81°
2026-05-07 01:37 49.58782 -107.15562 38869 ft 502 kts 81°
2026-05-07 01:37 49.58975 -107.04900 38863 ft 501 kts 81°
2026-05-07 01:38 49.59159 -106.94164 38869 ft 500 kts 81°
2026-05-07 01:38 49.59334 -106.83456 38882 ft 501 kts 81°
2026-05-07 01:39 49.59498 -106.72798 38882 ft 502 kts 81°
2026-05-07 01:39 49.59654 -106.62026 38860 ft 503 kts 81°
2026-05-07 01:40 49.59797 -106.51333 38900 ft 501 kts 81°
2026-05-07 01:40 49.59932 -106.40590 38877 ft 501 kts 81°
2026-05-07 01:41 49.60059 -106.29810 38879 ft 503 kts 82°
2026-05-07 01:41 49.60173 -106.19080 38876 ft 503 kts 82°
2026-05-07 01:42 49.60278 -106.08334 38869 ft 502 kts 82°
2026-05-07 01:42 49.60375 -105.97543 38900 ft 504 kts 82°
2026-05-07 01:43 49.60459 -105.86794 38889 ft 502 kts 82°
2026-05-07 01:43 49.60535 -105.76007 38877 ft 503 kts 82°
2026-05-07 01:44 49.60600 -105.65281 38863 ft 501 kts 82°
2026-05-07 01:44 49.60657 -105.54549 38896 ft 505 kts 82°
2026-05-07 01:45 49.60701 -105.43722 38889 ft 503 kts 82°
2026-05-07 01:45 49.60737 -105.33038 38889 ft 505 kts 83°
2026-05-07 01:46 49.60763 -105.22137 38890 ft 503 kts 83°
2026-05-07 01:46 49.60778 -105.11413 38899 ft 502 kts 83°
2026-05-07 01:47 49.60785 -105.00648 38892 ft 506 kts 83°
2026-05-07 01:47 49.60779 -104.89838 38891 ft 504 kts 83°
2026-05-07 01:48 49.60765 -104.79012 38894 ft 502 kts 83°
2026-05-07 01:48 49.60741 -104.68263 38892 ft 505 kts 83°
2026-05-07 01:49 49.60706 -104.57533 38892 ft 505 kts 83°
2026-05-07 01:49 49.60661 -104.46709 38898 ft 504 kts 83°
2026-05-07 01:50 49.60607 -104.35965 38894 ft 502 kts 83°
2026-05-07 01:50 49.60543 -104.25148 38893 ft 504 kts 83°
2026-05-07 01:51 49.60468 -104.14340 38903 ft 505 kts 84°
2026-05-07 01:51 49.60384 -104.03551 38895 ft 505 kts 84°
2026-05-07 01:52 49.60288 -103.92715 38892 ft 505 kts 84°
2026-05-07 01:52 49.60184 -103.81928 38912 ft 506 kts 84°
2026-05-07 01:53 49.60068 -103.71127 38899 ft 505 kts 84°
2026-05-07 01:53 49.59943 -103.60272 38901 ft 505 kts 84°
2026-05-07 01:54 49.59808 -103.49547 38918 ft 504 kts 84°
2026-05-07 01:54 49.59664 -103.38760 38909 ft 506 kts 84°
2026-05-07 01:55 49.59508 -103.27902 38889 ft 503 kts 85°
2026-05-07 01:55 49.59343 -103.17107 38894 ft 504 kts 85°
2026-05-07 01:56 49.59169 -103.06338 38903 ft 506 kts 85°
2026-05-07 01:56 49.58982 -102.95483 38905 ft 505 kts 85°
2026-05-07 01:57 49.58788 -102.84785 38910 ft 503 kts 85°
2026-05-07 01:57 49.58584 -102.74021 38898 ft 506 kts 85°
2026-05-07 01:58 49.58368 -102.63168 38906 ft 506 kts 85°
2026-05-07 01:58 49.58142 -102.52374 38901 ft 506 kts 85°
2026-05-07 01:59 49.57907 -102.41617 38898 ft 503 kts 85°
2026-05-07 01:59 49.57661 -102.30740 38905 ft 507 kts 86°
2026-05-07 02:00 49.57405 -102.19958 38898 ft 506 kts 86°
2026-05-07 02:00 49.57138 -102.09122 38906 ft 506 kts 86°
2026-05-07 02:01 49.56862 -101.98316 38901 ft 505 kts 86°
2026-05-07 02:01 49.56576 -101.87508 38907 ft 507 kts 87°
2026-05-07 02:02 49.56279 -101.76674 38921 ft 506 kts 86°
2026-05-07 02:02 49.55971 -101.65836 38914 ft 507 kts 86°
2026-05-07 02:03 49.55654 -101.55047 38903 ft 503 kts 87°
2026-05-07 02:03 49.55328 -101.44194 38918 ft 507 kts 87°
2026-05-07 02:04 49.54992 -101.33468 38918 ft 503 kts 88°
2026-05-07 02:04 49.54645 -101.22629 38911 ft 506 kts 88°
2026-05-07 02:05 49.54290 -101.11887 38903 ft 504 kts 88°
2026-05-07 02:05 49.53925 -101.01129 38915 ft 504 kts 88°
2026-05-07 02:06 49.53549 -100.90363 38921 ft 504 kts 88°
2026-05-07 02:06 49.53165 -100.79632 38923 ft 507 kts 88°
2026-05-07 02:07 49.52768 -100.68823 38921 ft 506 kts 88°
2026-05-07 02:07 49.52156 -100.52729 38920 ft 503 kts 88°
2026-05-07 02:08 49.51736 -100.41956 38922 ft 505 kts 88°
2026-05-07 02:08 49.51304 -100.31175 38916 ft 505 kts 89°
2026-05-07 02:09 49.50863 -100.20410 38913 ft 504 kts 89°
2026-05-07 02:09 49.50413 -100.09671 38915 ft 505 kts 89°
2026-05-07 02:10 49.49885 -99.98910 38921 ft 506 kts 91°
2026-05-07 02:10 49.49150 -99.88211 38922 ft 506 kts 92°
2026-05-07 02:11 49.48385 -99.77414 38919 ft 507 kts 92°
2026-05-07 02:11 49.47610 -99.66681 38915 ft 506 kts 92°
2026-05-07 02:12 49.46826 -99.55980 38915 ft 507 kts 92°
2026-05-07 02:12 49.46028 -99.45236 38920 ft 505 kts 92°
2026-05-07 02:13 49.45219 -99.34495 38920 ft 507 kts 93°
2026-05-07 02:13 49.44390 -99.23631 38918 ft 507 kts 93°
2026-05-07 02:14 49.43563 -99.12929 38923 ft 507 kts 93°
2026-05-07 02:14 49.42718 -99.02131 38929 ft 507 kts 93°
2026-05-07 02:15 49.41872 -98.91454 38924 ft 507 kts 93°
2026-05-07 02:15 49.41009 -98.80690 38922 ft 507 kts 94°
2026-05-07 02:16 49.40139 -98.69965 38928 ft 508 kts 94°
2026-05-07 02:16 49.39260 -98.59252 38932 ft 507 kts 94°
2026-05-07 02:17 49.38368 -98.48508 38930 ft 508 kts 94°
2026-05-07 02:17 49.37468 -98.37790 38943 ft 509 kts 94°
2026-05-07 02:18 49.36547 -98.26952 38941 ft 508 kts 94°
2026-05-07 02:18 49.35631 -98.16291 38949 ft 507 kts 94°
2026-05-07 02:19 49.34694 -98.05502 38949 ft 508 kts 95°
2026-05-07 02:19 49.33756 -97.94813 38949 ft 508 kts 95°
2026-05-07 02:20 49.32805 -97.84106 38947 ft 507 kts 95°
2026-05-07 02:20 49.31848 -97.73438 38951 ft 508 kts 95°
2026-05-07 02:21 49.30877 -97.62738 38954 ft 508 kts 95°
2026-05-07 02:21 49.29898 -97.52052 38953 ft 507 kts 95°
2026-05-07 02:22 49.28909 -97.41371 38955 ft 508 kts 95°
2026-05-07 02:22 49.27896 -97.30547 38956 ft 509 kts 96°
2026-05-07 02:23 49.26886 -97.19867 38956 ft 509 kts 96°
2026-05-07 02:23 49.25867 -97.09200 38956 ft 508 kts 96°
2026-05-07 02:24 49.24833 -96.98471 38959 ft 508 kts 96°
2026-05-07 02:24 49.23794 -96.87808 38956 ft 508 kts 96°
2026-05-07 02:25 49.22745 -96.77152 38958 ft 507 kts 96°
2026-05-07 02:25 49.21683 -96.66459 38955 ft 508 kts 96°
2026-05-07 02:26 49.20618 -96.55844 38953 ft 508 kts 96°
2026-05-07 02:26 49.19535 -96.45155 38965 ft 509 kts 96°
2026-05-07 02:27 49.18449 -96.34525 38973 ft 508 kts 97°
2026-05-07 02:27 49.17343 -96.23813 38967 ft 509 kts 97°
2026-05-07 02:28 49.16230 -96.13132 38969 ft 508 kts 97°
2026-05-07 02:28 49.15115 -96.02525 38963 ft 507 kts 97°
2026-05-07 02:29 49.13987 -95.91891 38970 ft 508 kts 97°
2026-05-07 02:29 49.12843 -95.81213 38968 ft 509 kts 97°
2026-05-07 02:30 49.11694 -95.70576 38970 ft 509 kts 97°
2026-05-07 02:30 49.10541 -95.59998 38971 ft 509 kts 97°
2026-05-07 02:31 49.09374 -95.49387 38971 ft 509 kts 97°
2026-05-07 02:31 49.08194 -95.38753 38974 ft 510 kts 97°
2026-05-07 02:32 49.07003 -95.28109 38974 ft 509 kts 98°
2026-05-07 02:32 49.05808 -95.17532 38975 ft 509 kts 98°
2026-05-07 02:33 49.04603 -95.06947 38972 ft 509 kts 98°
2026-05-07 02:33 49.03384 -94.96330 38971 ft 509 kts 98°
2026-05-07 02:34 49.02158 -94.85741 38972 ft 510 kts 98°
2026-05-07 02:34 49.00922 -94.75163 38972 ft 510 kts 98°
2026-05-07 02:35 48.99674 -94.64558 38972 ft 510 kts 98°
2026-05-07 02:35 48.98418 -94.53979 38972 ft 510 kts 98°
2026-05-07 02:36 48.97151 -94.43399 38969 ft 509 kts 98°
2026-05-07 02:36 48.95875 -94.32823 38966 ft 509 kts 99°
2026-05-07 02:37 48.94588 -94.22248 38963 ft 509 kts 99°
2026-05-07 02:37 48.93300 -94.11745 38964 ft 509 kts 99°
2026-05-07 02:38 48.91989 -94.01135 38962 ft 509 kts 99°
2026-05-07 02:38 48.90673 -93.90572 38960 ft 510 kts 99°
2026-05-07 02:39 48.89341 -93.79964 38952 ft 511 kts 99°
2026-05-07 02:39 48.87999 -93.69360 38954 ft 511 kts 99°
2026-05-07 02:40 48.86655 -93.58823 38953 ft 510 kts 99°
2026-05-07 02:40 48.85301 -93.48286 38949 ft 510 kts 99°
2026-05-07 02:41 48.83935 -93.37736 38949 ft 511 kts 99°
2026-05-07 02:41 48.82551 -93.27132 38946 ft 512 kts 100°
2026-05-07 02:42 48.81161 -93.16558 38945 ft 512 kts 100°
2026-05-07 02:42 48.79766 -93.06030 38945 ft 511 kts 100°
2026-05-07 02:43 48.78359 -92.95482 38945 ft 511 kts 100°
2026-05-07 02:43 48.76934 -92.84885 38942 ft 512 kts 100°
2026-05-07 02:44 48.75507 -92.74347 38941 ft 511 kts 100°
2026-05-07 02:44 48.74079 -92.63881 38940 ft 511 kts 100°
2026-05-07 02:45 48.72623 -92.53281 38940 ft 511 kts 100°
2026-05-07 02:45 48.71174 -92.42815 38943 ft 510 kts 100°
2026-05-07 02:46 48.69708 -92.32296 38944 ft 511 kts 101°
2026-05-07 02:46 48.68222 -92.21708 38943 ft 512 kts 101°
2026-05-07 02:47 48.66736 -92.11198 38941 ft 511 kts 101°
2026-05-07 02:47 48.65248 -92.00747 38937 ft 511 kts 101°
2026-05-07 02:48 48.63751 -91.90301 38938 ft 511 kts 101°
2026-05-07 02:48 48.62233 -91.79785 38936 ft 511 kts 101°
2026-05-07 02:49 48.60712 -91.69318 38934 ft 512 kts 101°
2026-05-07 02:49 48.59192 -91.58934 38928 ft 511 kts 101°
2026-05-07 02:50 48.57649 -91.48460 38924 ft 512 kts 101°
2026-05-07 02:50 48.56097 -91.37997 38924 ft 513 kts 101°
2026-05-07 02:51 48.54523 -91.27455 38920 ft 512 kts 102°
2026-05-07 02:51 48.52951 -91.16994 38919 ft 512 kts 102°
2026-05-07 02:52 48.51373 -91.06566 38912 ft 511 kts 102°
2026-05-07 02:52 48.49786 -90.96152 38909 ft 512 kts 102°
2026-05-07 02:53 48.48188 -90.85729 38907 ft 512 kts 102°
2026-05-07 02:53 48.46581 -90.75311 38908 ft 512 kts 102°
2026-05-07 02:54 48.44959 -90.64867 38905 ft 513 kts 102°
2026-05-07 02:54 48.43328 -90.54439 38901 ft 514 kts 102°
2026-05-07 02:55 48.41675 -90.43927 38896 ft 513 kts 102°
2026-05-07 02:55 48.40033 -90.33556 38898 ft 513 kts 103°
2026-05-07 02:56 48.38366 -90.23096 38893 ft 512 kts 103°
2026-05-07 02:56 48.36696 -90.12685 38895 ft 513 kts 103°
2026-05-07 02:57 48.35015 -90.02267 38897 ft 513 kts 103°
2026-05-07 02:57 48.33338 -89.91938 38896 ft 513 kts 103°
2026-05-07 02:58 48.31632 -89.81493 38899 ft 514 kts 103°
2026-05-07 02:58 48.29919 -89.71079 38902 ft 515 kts 103°
2026-05-07 02:59 48.28209 -89.60736 38916 ft 514 kts 103°
2026-05-07 02:59 48.26478 -89.50335 38925 ft 514 kts 104°
2026-05-07 03:00 48.24178 -89.40224 38929 ft 513 kts 112°
2026-05-07 03:00 48.21462 -89.30354 38926 ft 513 kts 113°
2026-05-07 03:01 48.18702 -89.20517 38923 ft 514 kts 113°
2026-05-07 03:01 48.15923 -89.10731 38919 ft 513 kts 114°
2026-05-07 03:02 48.13103 -89.00884 38920 ft 514 kts 114°
2026-05-07 03:02 48.10283 -88.91101 38924 ft 515 kts 114°
2026-05-07 03:03 48.07433 -88.81268 38920 ft 515 kts 114°
2026-05-07 03:03 48.04582 -88.71481 38919 ft 515 kts 114°
2026-05-07 03:04 48.01720 -88.61694 38919 ft 516 kts 114°
2026-05-07 03:04 47.98860 -88.51958 38923 ft 515 kts 114°
2026-05-07 03:05 47.95967 -88.42146 38924 ft 515 kts 114°
2026-05-07 03:05 47.93080 -88.32397 38927 ft 515 kts 115°
2026-05-07 03:06 47.90173 -88.22620 38923 ft 515 kts 115°
2026-05-07 03:06 47.87270 -88.12895 38923 ft 516 kts 115°
2026-05-07 03:07 47.84354 -88.03165 38923 ft 515 kts 115°
2026-05-07 03:07 47.81446 -87.93499 38925 ft 515 kts 115°
2026-05-07 03:08 47.78519 -87.83809 38926 ft 515 kts 115°
2026-05-07 03:08 47.75586 -87.74136 38928 ft 515 kts 115°
2026-05-07 03:09 47.72627 -87.64414 38929 ft 516 kts 115°
2026-05-07 03:09 47.69670 -87.54739 38931 ft 517 kts 115°
2026-05-07 03:10 47.66704 -87.45070 38932 ft 518 kts 115°
2026-05-07 03:10 47.63728 -87.35407 38935 ft 517 kts 115°
2026-05-07 03:11 47.60748 -87.25769 38933 ft 517 kts 116°
2026-05-07 03:11 47.57753 -87.16118 38928 ft 517 kts 116°
2026-05-07 03:12 47.54746 -87.06467 38930 ft 516 kts 116°
2026-05-07 03:12 47.51758 -86.96912 38932 ft 517 kts 116°
2026-05-07 03:13 47.48735 -86.87284 38932 ft 517 kts 116°
2026-05-07 03:13 47.45715 -86.77699 38933 ft 518 kts 116°
2026-05-07 03:14 47.42686 -86.68126 38933 ft 517 kts 116°
2026-05-07 03:15 47.38111 -86.53732 38937 ft 518 kts 116°
2026-05-07 03:15 47.35065 -86.44192 38937 ft 517 kts 116°
2026-05-07 03:16 47.31997 -86.34621 38937 ft 518 kts 117°
2026-05-07 03:16 47.28920 -86.25056 38930 ft 517 kts 117°
2026-05-07 03:17 47.25841 -86.15523 38937 ft 518 kts 117°
2026-05-07 03:17 47.22749 -86.05985 38946 ft 517 kts 117°
2026-05-07 03:18 47.19665 -85.96508 38946 ft 517 kts 117°
2026-05-07 03:18 47.16562 -85.87002 38957 ft 517 kts 117°
2026-05-07 03:19 47.13469 -85.77569 38955 ft 517 kts 117°
2026-05-07 03:19 47.10342 -85.68063 38955 ft 517 kts 117°
2026-05-07 03:20 47.07223 -85.58616 38959 ft 517 kts 117°
2026-05-07 03:20 47.04082 -85.49139 38961 ft 518 kts 117°
2026-05-07 03:21 47.00948 -85.39716 38965 ft 518 kts 117°
2026-05-07 03:21 46.97772 -85.30202 38960 ft 518 kts 118°
2026-05-07 03:22 46.94616 -85.20782 38960 ft 517 kts 118°
2026-05-07 03:22 46.91462 -85.11403 38959 ft 517 kts 118°
2026-05-07 03:23 46.88272 -85.01950 38960 ft 518 kts 118°
2026-05-07 03:23 46.85077 -84.92519 38961 ft 517 kts 118°
2026-05-07 03:24 46.81876 -84.83104 38961 ft 519 kts 118°
2026-05-07 03:24 46.78680 -84.73734 38962 ft 519 kts 118°
2026-05-07 03:25 46.75443 -84.64281 38965 ft 519 kts 118°
2026-05-07 03:25 46.72214 -84.54882 38970 ft 520 kts 118°
2026-05-07 03:26 46.68990 -84.45534 38974 ft 520 kts 118°
2026-05-07 03:26 46.65733 -84.36121 38969 ft 519 kts 118°
2026-05-07 03:27 46.62471 -84.26730 38966 ft 521 kts 119°
2026-05-07 03:27 46.59207 -84.17366 38958 ft 519 kts 120°
2026-05-07 03:28 46.55941 -84.08031 38952 ft 521 kts 120°
2026-05-07 03:28 46.52665 -83.98697 38932 ft 521 kts 120°
2026-05-07 03:29 46.49363 -83.89324 38936 ft 521 kts 120°
2026-05-07 03:29 46.46069 -83.80005 38937 ft 522 kts 120°
2026-05-07 03:30 46.42741 -83.70624 38931 ft 522 kts 120°
2026-05-07 03:30 46.39119 -83.61626 38934 ft 519 kts 127°
2026-05-07 03:31 46.35000 -83.53069 38935 ft 518 kts 128°
2026-05-07 03:31 46.30831 -83.44507 38935 ft 518 kts 128°
2026-05-07 03:32 46.26689 -83.36054 38937 ft 517 kts 128°
2026-05-07 03:32 46.22519 -83.27583 38936 ft 518 kts 129°
2026-05-07 03:33 46.18331 -83.19114 38937 ft 518 kts 129°
2026-05-07 03:33 46.14156 -83.10699 38939 ft 519 kts 129°
2026-05-07 03:34 46.09952 -83.02255 38939 ft 519 kts 129°
2026-05-07 03:34 46.05751 -82.93842 38942 ft 518 kts 129°
2026-05-07 03:35 46.01546 -82.85449 38939 ft 519 kts 129°
2026-05-07 03:35 45.97333 -82.77065 38945 ft 519 kts 130°
2026-05-07 03:36 45.93121 -82.68707 38944 ft 519 kts 130°
2026-05-07 03:36 45.88869 -82.60295 38953 ft 518 kts 130°
2026-05-07 03:37 45.84598 -82.51872 38957 ft 521 kts 130°
2026-05-07 03:37 45.80369 -82.43556 38950 ft 520 kts 130°
2026-05-07 03:38 45.76110 -82.35174 38958 ft 522 kts 130°
2026-05-07 03:38 45.71811 -82.26691 38931 ft 520 kts 131°
2026-05-07 03:39 45.67530 -82.18389 38930 ft 521 kts 131°
2026-05-07 03:39 45.63240 -82.10101 38937 ft 521 kts 131°
2026-05-07 03:40 45.58412 -82.02537 38944 ft 514 kts 142°
2026-05-07 03:40 45.53205 -81.95548 38942 ft 514 kts 142°
2026-05-07 03:41 45.47995 -81.88582 38947 ft 515 kts 142°
2026-05-07 03:41 45.42803 -81.81656 38946 ft 514 kts 142°
2026-05-07 03:42 45.37587 -81.74716 38946 ft 515 kts 142°
2026-05-07 03:42 45.32336 -81.67748 38949 ft 516 kts 142°
2026-05-07 03:43 45.27103 -81.60821 38956 ft 517 kts 143°
2026-05-07 03:43 45.21867 -81.53907 38959 ft 517 kts 142°
2026-05-07 03:44 45.16606 -81.46980 38955 ft 517 kts 143°
2026-05-07 03:44 45.11362 -81.40090 38918 ft 512 kts 143°
2026-05-07 03:44 45.08749 -81.36662 38335 ft 510 kts 143°
2026-05-07 03:45 45.06139 -81.33249 37382 ft 517 kts 144°
2026-05-07 03:45 45.03461 -81.29752 36543 ft 521 kts 144°
2026-05-07 03:45 45.00823 -81.26309 35731 ft 524 kts 144°
2026-05-07 03:45 44.98154 -81.22830 34882 ft 527 kts 144°
2026-05-07 03:46 44.95469 -81.19334 33972 ft 530 kts 144°
2026-05-07 03:46 44.92737 -81.15781 33067 ft 531 kts 144°
2026-05-07 03:46 44.90065 -81.12309 32215 ft 529 kts 145°
2026-05-07 03:46 44.87329 -81.08756 31292 ft 523 kts 145°
2026-05-07 03:47 44.84679 -81.05316 30595 ft 509 kts 146°
2026-05-07 03:47 44.82227 -81.02133 30079 ft 493 kts 146°
2026-05-07 03:47 44.79754 -80.98930 29505 ft 480 kts 146°
2026-05-07 03:47 44.77242 -80.95702 28940 ft 496 kts 146°
2026-05-07 03:48 44.74694 -80.92429 28280 ft 498 kts 146°
2026-05-07 03:48 44.72171 -80.89182 27615 ft 495 kts 146°
2026-05-07 03:48 44.69655 -80.85944 26901 ft 490 kts 146°
2026-05-07 03:48 44.67157 -80.82734 26261 ft 484 kts 146°
2026-05-07 03:49 44.64699 -80.79579 25636 ft 478 kts 146°
2026-05-07 03:49 44.62236 -80.76421 25009 ft 472 kts 146°
2026-05-07 03:49 44.59847 -80.73364 24372 ft 465 kts 146°
2026-05-07 03:49 44.57477 -80.70335 23729 ft 459 kts 146°
2026-05-07 03:50 44.55126 -80.67333 23095 ft 453 kts 146°
2026-05-07 03:50 44.52815 -80.64387 22465 ft 448 kts 146°
2026-05-07 03:50 44.50532 -80.61481 21841 ft 443 kts 145°
2026-05-07 03:50 44.48270 -80.58605 21204 ft 438 kts 145°
2026-05-07 03:51 44.46023 -80.55750 20579 ft 433 kts 145°
2026-05-07 03:51 44.43811 -80.52943 19937 ft 429 kts 144°
2026-05-07 03:51 44.41606 -80.50149 19293 ft 425 kts 144°
2026-05-07 03:51 44.39434 -80.47399 18676 ft 421 kts 144°
2026-05-07 03:52 44.37269 -80.44661 18044 ft 417 kts 144°
2026-05-07 03:52 44.35145 -80.41977 17425 ft 413 kts 143°
2026-05-07 03:52 44.33022 -80.39298 16787 ft 409 kts 143°
2026-05-07 03:52 44.30918 -80.36644 16163 ft 405 kts 143°
2026-05-07 03:53 44.28857 -80.34047 15544 ft 401 kts 143°
2026-05-07 03:53 44.26763 -80.31410 14904 ft 397 kts 143°
2026-05-07 03:53 44.24698 -80.28813 14288 ft 393 kts 142°
2026-05-07 03:53 44.22677 -80.26274 13685 ft 389 kts 142°
2026-05-07 03:54 44.20673 -80.23759 13069 ft 386 kts 142°
2026-05-07 03:54 44.18690 -80.21273 12465 ft 383 kts 142°
2026-05-07 03:54 44.16708 -80.18789 11855 ft 379 kts 141°
2026-05-07 03:54 44.14767 -80.16353 11255 ft 376 kts 141°
2026-05-07 03:55 44.12843 -80.13943 10807 ft 369 kts 141°
2026-05-07 03:55 44.10981 -80.11606 10751 ft 350 kts 141°
2026-05-07 03:55 44.09211 -80.09387 10675 ft 335 kts 141°
2026-05-07 03:55 44.07522 -80.07274 10553 ft 322 kts 141°
2026-05-07 03:56 44.05886 -80.05231 10404 ft 311 kts 141°
2026-05-07 03:56 44.04290 -80.03239 10263 ft 301 kts 141°
2026-05-07 03:56 44.02757 -80.01326 10134 ft 292 kts 141°
2026-05-07 03:56 44.01220 -79.99520 9920 ft 285 kts 146°
2026-05-07 03:57 43.99648 -79.97869 9770 ft 287 kts 147°
2026-05-07 03:57 43.98044 -79.96205 9671 ft 288 kts 147°
2026-05-07 03:57 43.96422 -79.94519 9553 ft 288 kts 146°
2026-05-07 03:57 43.94817 -79.92847 9439 ft 287 kts 146°
2026-05-07 03:58 43.93236 -79.91200 9316 ft 288 kts 146°
2026-05-07 03:58 43.91639 -79.89536 9199 ft 286 kts 147°
2026-05-07 03:58 43.90038 -79.87872 9081 ft 287 kts 147°
2026-05-07 03:58 43.88442 -79.86212 8960 ft 287 kts 146°
2026-05-07 03:59 43.86816 -79.84523 8832 ft 285 kts 147°
2026-05-07 03:59 43.85243 -79.82890 8719 ft 284 kts 147°
2026-05-07 03:59 43.83664 -79.81252 8606 ft 285 kts 146°
2026-05-07 03:59 43.82066 -79.79595 8484 ft 285 kts 146°
2026-05-07 04:00 43.80494 -79.77966 8366 ft 284 kts 146°
2026-05-07 04:00 43.78917 -79.76334 8244 ft 280 kts 147°
2026-05-07 04:00 43.77370 -79.74731 8124 ft 271 kts 146°
2026-05-07 04:00 43.75934 -79.73131 8006 ft 265 kts 134°
2026-05-07 04:01 43.74959 -79.70985 7895 ft 258 kts 120°
2026-05-07 04:01 43.73847 -79.69144 7774 ft 249 kts 149°
2026-05-07 04:01 43.72262 -79.68324 7666 ft 240 kts 181°
2026-05-07 04:01 43.70680 -79.68736 7558 ft 226 kts 214°
2026-05-07 04:02 43.69595 -79.70154 7450 ft 215 kts 245°
2026-05-07 04:02 43.69037 -79.72050 7377 ft 211 kts 262°
2026-05-07 04:02 43.68983 -79.74046 7263 ft 206 kts 272°
2026-05-07 04:02 43.69014 -79.76054 6957 ft 208 kts 272°
2026-05-07 04:03 43.69047 -79.78027 6750 ft 205 kts 272°
2026-05-07 04:03 43.68917 -79.80003 6449 ft 209 kts 255°
2026-05-07 04:03 43.68225 -79.81773 6196 ft 213 kts 237°
2026-05-07 04:03 43.67253 -79.83321 5950 ft 214 kts 231°
2026-05-07 04:04 43.66227 -79.84804 5699 ft 215 kts 230°
2026-05-07 04:04 43.65200 -79.86281 5554 ft 213 kts 230°
2026-05-07 04:04 43.64162 -79.87779 5470 ft 215 kts 230°
2026-05-07 04:04 43.63130 -79.89267 5398 ft 214 kts 231°
2026-05-07 04:05 43.62089 -79.90768 5327 ft 215 kts 230°
2026-05-07 04:05 43.61057 -79.92257 5254 ft 215 kts 230°
2026-05-07 04:05 43.60024 -79.93744 5181 ft 215 kts 230°
2026-05-07 04:05 43.58980 -79.95247 5103 ft 216 kts 230°
2026-05-07 04:06 43.57946 -79.96719 5029 ft 216 kts 226°
2026-05-07 04:06 43.56595 -79.97670 4936 ft 224 kts 192°
2026-05-07 04:06 43.55035 -79.97529 4876 ft 229 kts 172°
2026-05-07 04:06 43.53455 -79.97041 4723 ft 232 kts 170°
2026-05-07 04:07 43.51881 -79.96545 4543 ft 230 kts 170°
2026-05-07 04:07 43.50328 -79.96021 4357 ft 230 kts 162°
2026-05-07 04:07 43.49021 -79.94774 4151 ft 232 kts 128°
2026-05-07 04:07 43.48400 -79.92771 3949 ft 231 kts 94°
2026-05-07 04:08 43.48608 -79.90615 3746 ft 227 kts 64°
2026-05-07 04:08 43.49546 -79.88962 3542 ft 218 kts 30°
2026-05-07 04:08 43.50915 -79.88183 3357 ft 213 kts 14°
2026-05-07 04:08 43.52296 -79.87445 3172 ft 214 kts 26°
2026-05-07 04:09 43.53500 -79.86254 3001 ft 213 kts 38°
2026-05-07 04:09 43.54562 -79.84872 2969 ft 203 kts 42°
2026-05-07 04:09 43.55539 -79.83500 2970 ft 200 kts 42°
2026-05-07 04:09 43.56495 -79.82131 2976 ft 201 kts 42°
2026-05-07 04:10 43.57448 -79.80761 2966 ft 191 kts 42°
2026-05-07 04:10 43.58339 -79.79484 2967 ft 182 kts 42°
2026-05-07 04:10 43.59203 -79.78244 2962 ft 179 kts 42°
2026-05-07 04:10 43.60084 -79.76977 2742 ft 182 kts 42°
2026-05-07 04:11 43.60935 -79.75748 2493 ft 175 kts 42°
2026-05-07 04:11 43.61749 -79.74579 2260 ft 166 kts 43°
2026-05-07 04:11 43.62521 -79.73464 2030 ft 150 kts 42°
2026-05-07 04:11 43.63213 -79.72470 1847 ft 141 kts 42°
2026-05-07 04:12 43.63885 -79.71497 1656 ft 137 kts 42°
2026-05-07 04:12 43.64545 -79.70544 1462 ft 137 kts 43°
2026-05-07 04:12 43.65200 -79.69605 1276 ft 136 kts 43°
2026-05-07 04:12 43.65854 -79.68654 1075 ft 134 kts 44°
2026-05-07 04:13 43.66493 -79.67725 886 ft 133 kts 43°
2026-05-07 04:13 43.67141 -79.66798 698 ft 133 kts 44°
2026-05-07 04:13 43.67771 -79.65885 572 ft 123 kts 45°
2026-05-07 04:13 43.68236 -79.65215 556 ft 71 kts 46°
2026-05-07 04:14 43.68469 -79.64876 551 ft 38 kts 46°
2026-05-07 04:14 43.68637 -79.64625 551 ft 33 kts 51°
2026-05-07 04:14 43.68736 -79.64387 550 ft 23 kts 70°
2026-05-07 04:14 43.68765 -79.64214 550 ft 14 kts 81°
2026-05-07 04:15 43.68782 -79.64076 549 ft 11 kts 77°
2026-05-07 04:15 43.68814 -79.63972 550 ft 11 kts 55°
2026-05-07 04:15 43.68868 -79.63889 551 ft 11 kts 46°
2026-05-07 04:15 43.68923 -79.63810 551 ft 11 kts 46°
2026-05-07 04:16 43.68977 -79.63732 552 ft 11 kts 45°
2026-05-07 04:16 43.69018 -79.63658 553 ft 8 kts 71°
2026-05-07 04:16 43.69003 -79.63583 554 ft 8 kts 129°
2026-05-07 04:16 43.68959 -79.63522 555 ft 9 kts 136°
2026-05-07 04:17 43.68910 -79.63459 556 ft 10 kts 136°
2026-05-07 04:17 43.68851 -79.63383 558 ft 12 kts 136°
2026-05-07 04:17 43.68781 -79.63292 559 ft 14 kts 136°
2026-05-07 04:17 43.68703 -79.63189 561 ft 16 kts 136°
2026-05-07 04:18 43.68619 -79.63081 564 ft 15 kts 136°
2026-05-07 04:18 43.68543 -79.62981 566 ft 14 kts 136°
2026-05-07 04:18 43.68472 -79.62888 568 ft 13 kts 136°
2026-05-07 04:18 43.68397 -79.62791 570 ft 15 kts 137°
2026-05-07 04:19 43.68313 -79.62681 573 ft 17 kts 136°
2026-05-07 04:19 43.68221 -79.62561 575 ft 18 kts 136°
2026-05-07 04:19 43.68122 -79.62434 576 ft 20 kts 137°
2026-05-07 04:19 43.68016 -79.62298 578 ft 20 kts 136°
2026-05-07 04:20 43.67937 -79.62197 578 ft 10 kts 137°
2026-05-07 04:20 43.67910 -79.62138 578 ft 6 kts 84°
2026-05-07 04:20 43.67937 -79.62077 578 ft 7 kts 51°
2026-05-07 04:21 43.67983 -79.61945 578 ft 6 kts 101°
2026-05-07 04:21 43.67971 -79.61875 578 ft 8 kts 102°
2026-05-07 04:21 43.67966 -79.61835 578 ft 3 kts 98°
2026-05-07 04:21 43.67964 -79.61819 578 ft 0 kts 98°